Location: Borotín
(49.5055°N, 14.6142°E)
Time: 12:33:15
(UTC+00:00)

Cosmos 1455 - Pass Details

Date: 27 May 2022
Orbit: 492 x 515 km, 82.5° (Epoch: 27 June)

Event Time Altitude Azimuth Distance (km) Brightness Sun altitude
Rises 00:25:36 0° 354° (N) 2,588 6.9 -16.6°
Reaches altitude 10° 00:27:47 10° 1° (N) 1,699 5.9 -16.5°
Maximum altitude 00:31:23 47° 76° (ENE) 665 3.0 -16.3°
Enters shadow 00:33:59 17° 146° (SE) 1,312 3.9 -16.1°
